Regional Weather Roundup
Issued by NWS Raleigh/Durham, NC

Home | Current Version | Previous Version | Text Only | Print | Product List | Glossary On
Versions: 1 2 3 4 5 6 7 8 9 10 11 12 13 14 15 16 17 18 19 20 21 22 23 24 25 26 27 28 29 30 31 32 33 34 35 36 37 38 39 40 41 42 43 44 45 46 47 48 49 50
000
ASUS42 KRAH 121310
RWRRAH
NORTH CAROLINA WEATHER ROUNDUP
NATIONAL WEATHER SERVICE RALEIGH NC
900 AM EDT WED AUG 12 2020

NOTE: "FAIR" INDICATES FEW OR NO CLOUDS BELOW 12,000 FEET WITH NO
SIGNIFICANT WEATHER AND/OR OBSTRUCTIONS TO VISIBILITY.

NCZ001-053-055-056-065-067-121400-
WESTERN NORTH CAROLINA

CITY           SKY/WX    TMP DP  RH WIND       PRES   REMARKS
ASHEVILLE      SUNNY     74  67  78 N6        30.14R
JEFFERSON      CLOUDY    69  69 100 CALM      30.19S FOG
MORGANTON      SUNNY     68  62  82 CALM      30.11S
HICKORY        SUNNY     76  71  85 CALM      30.07R
WILKESBORO     NOT AVBL
RUTHERFORDTON  NOT AVBL
MOUNT AIRY     SUNNY     78  73  84 CALM      30.10R
BOONE            N/A     69  68  98 CALM      30.19S
$$

NCZ021-022-025-041-071-084-088-121400-
CENTRAL NORTH CAROLINA

CITY           SKY/WX    TMP DP  RH WIND       PRES   REMARKS
CHARLOTTE      PTSUNNY   79  71  76 N5        30.05S
GREENSBORO     MOSUNNY   79  73  82 CALM      30.06R
WINSTON-SALEM  SUNNY     77  75  93 E3        30.07R
RALEIGH-DURHAM MOSUNNY   80  75  84 VRB3      30.05S
FORT BRAGG     SUNNY     80  78  95 CALM      30.03R
FAYETTEVILLE   SUNNY     80  74  81 CALM      30.03R
BURLINGTON     SUNNY     80  74  81 CALM      30.05R
ROXBORO        SUNNY     77  73  88 CALM      30.08R
HENDERSON      SUNNY     77  74  90 CALM      30.06R
LOUISBURG      SUNNY     77  73  88 CALM      30.08S
LAURINBURG     SUNNY     81  76  84 VRB3      30.03S
$$

NCZ011-015-027-028-043-044-047-080-103-121400-
NORTHEASTERN NORTH CAROLINA

CITY           SKY/WX    TMP DP  RH WIND       PRES   REMARKS
ROCKY MT-WILSO SUNNY     80  76  87 CALM      30.05S
GREENVILLE     PTSUNNY   79  77  94 CALM      30.07R
WASHINGTON     MOSUNNY   82  76  82 SE3       30.06R
ELIZABETH CITY MOSUNNY   84  80  88 S3        30.04F HX  97
MANTEO         SUNNY     81  74  79 SW5       30.06S
CAPE HATTERAS  SUNNY     85  75  72 S6        30.06R
$$

NCZ078-087-090-091-093-098-101-121400-
SOUTHEASTERN NORTH CAROLINA

CITY           SKY/WX    TMP DP  RH WIND       PRES   REMARKS
GOLDSBORO      SUNNY     78  78 100 SE3       30.03R
KINSTON        MOSUNNY   81  77  89 E3        30.06R
KENANSVILLE    SUNNY     81  75  83 E6        30.05S
NEW BERN       SUNNY     81  78  91 MISG      30.05R
CHERRY POINT   SUNNY     84  78  82 E8        30.05R HX  95
BEAUFORT       SUNNY     84  75  74 SE8       30.04S
JACKSONVILLE   MOSUNNY   82  75  79 E9        30.03R
WILMINGTON     LGT RAIN  80  75  84 E5        30.03R
$$




USA.gov is the U.S. government's official web portal to all federal, state and local government web resources and services.